SKYSAT-C1 (41601 NORAD) Tracking and Keplerian Element Data

This shows tracking and keplerian element data for the satellite.

Feedback or suggestion? Click here.




ElementValue
Catalog41601
NameSKYSAT-C1
Epoch Orbit11494
Epoch Day198.85419152
Epoch Year2018
RAAN273.0885
Inclination97.5689
Eccentricity0.0001786
Argument of Perigee93.5239
Mean Anonmoly330.525
Mean Motion15.22867252
Decay Rate4.69E-06
L11 41601U 16040C 18198.85419152 .00000469 00000-0 23120-4 0 9996
L22 41601 97.5689 273.0885 0001786 93.5239 330.5250 15.22867252114941

Live tracking and technical data element details for SKYSAT-C1 (NORAD 41601). SKYSAT-C1 can be tracked NOW for your location showing map with azimuth and elevation plus other details from your city location.

Track the satellite on the map from your city or location and see movement details for azimuth, elevation, latitude, longitude, range, height, and movement on the map or in text.







IsCatalogInMostPopularTable: catalog: 41601, numindb: 56
Update: records affected: 1



GetName: 41601 SKYSAT-C1

Hit Count: updated at: Wed, 18 Jul 2018 20:15:49 GMT